Location: Newark
(42.7133°N, 87.7910°W)
Time: 21:15:27
(UTC+00:00)

Tiros 1 - Pass Details

Date: 21 September 2019
Orbit: 630 x 664 km, 48.4° (Epoch: 12 October)

Event Time Altitude Azimuth Distance (km) Brightness Sun altitude
Rises 21:07:19 0° 282° (WNW) 2,960 11.2 28.1°
Reaches altitude 10° 21:09:47 10° 289° (WNW) 2,043 10.4 27.7°
Maximum altitude 21:14:14 41° 0° (N) 937 8.0 27.0°
Drops below altitude 10° 21:18:39 10° 71° (ENE) 2,023 9.2 26.3°
Sets 21:21:05 0° 79° (E) 2,926 10.0 25.9°
